Kirksville, MO

6:25 AM CST on January 16, 2018 (GMT -0600)
Kirksville Regional

Weather History for KIRK - April, 2013

Change the Weather History Date:

Tuesday, April 23, 2013

  Actual Average Record
Temperature  
Mean Temperature 42 °F 54 °F  
Max Temperature 51 °F 65 °F 84 °F (1942)
Min Temperature 33 °F 43 °F 20 °F (1956)
Degree Days  
Heating Degree Days 23 11  
Month to date heating degree days 404 334  
Since 1 July heating degree days 5766 5621  
Cooling Degree Days 0 0  
Month to date cooling degree days 3 0  
Year to date cooling degree days 3 0  
Moisture  
Dew Point 36 °F    
Average Humidity 91    
Maximum Humidity 100    
Minimum Humidity 82    
Precipitation  
Precipitation 0.29 in 0.15 in 1.77 in (1944)
Month to date precipitation 6.79 2.66  
Year to date precipitation 15.58 8.01  
Sea Level Pressure  
Sea Level Pressure 30.05 in    
Wind  
Wind Speed 12 mph (North)    
Max Wind Speed 20 mph    
Max Gust Speed 24 mph    
Visibility 6 miles    
Events Rain , Snow    
T = Trace of Precipitation, MM = Missing Value Source: NWS Daily Summary

Daily Weather History Graph

Daily Weather History Graph

Search for Another Location

Airport or City:

Trip Planner

Search our weather history database for the weather conditions in past years. The results will help you decide how hot, cold, wet, or windy it might be!

Date:

Astronomy

Apr. 23, 2013 Rise Set
Actual Time 6:20 AM CDT 7:57 PM CDT
Civil Twilight 5:51 AM CDT 8:26 PM CDT
Nautical Twilight 5:16 AM CDT 9:00 PM CDT
Astronomical Twilight 4:40 AM CDT 9:37 PM CDT
Moon 5:52 PM CDT (4/23) 4:48 AM CDT (4/23)
Length of Visible Light 14h 34m
Length of Day
13h 36m
Waxing Gibbous, 94% of the Moon is Illuminated
Apr 23
Waxing Gibbous
Apr 25
Full
May 2
Last Quarter
May 9
New
May 17
First Quarter

Hourly Weather History & Observations

Time (CDT) Temp. Windchill Dew Point Humidity Pressure Visibility Wind Dir Wind Speed Gust Speed Precip Events Conditions
12:55 AM 50.0 °F - 48.0 °F 93% 30.00 in 10.0 mi North 8.1 mph - N/A   Overcast
1:55 AM 50.0 °F - 48.0 °F 93% 30.02 in 10.0 mi NNW 4.6 mph - 0.00 in   Overcast
2:43 AM 51.8 °F - 48.2 °F 88% 29.99 in 10.0 mi North 6.9 mph - N/A   Overcast
2:55 AM 51.1 °F - 48.9 °F 92% 29.98 in 10.0 mi North 11.5 mph - N/A   Overcast
3:20 AM 48.2 °F - 46.4 °F 93% 29.99 in 10.0 mi NNW 11.5 mph - N/A   Overcast
3:55 AM 44.1 °F 37.1 °F 42.1 °F 93% 30.02 in 10.0 mi NNW 15.0 mph 19.6 mph 0.00 in Rain Light Rain
4:55 AM 39.9 °F 31.8 °F 37.9 °F 93% 30.05 in 9.0 mi NNW 15.0 mph - 0.00 in Rain Light Rain
5:04 AM 39.2 °F 32.0 °F 37.4 °F 93% 30.04 in 10.0 mi NNW 11.5 mph 19.6 mph 0.00 in Rain Light Rain
5:55 AM 37.9 °F 29.6 °F 36.0 °F 93% 30.04 in 10.0 mi NNW 13.8 mph 19.6 mph 0.00 in   Overcast
6:55 AM 37.0 °F 28.9 °F 35.1 °F 93% 30.07 in 8.0 mi North 12.7 mph - 0.02 in Rain Light Rain
7:55 AM 36.0 °F 27.1 °F 35.1 °F 97% 30.06 in 8.0 mi North 13.8 mph - 0.04 in Rain Light Rain
8:08 AM 35.6 °F 28.6 °F 35.6 °F 100% 30.04 in 8.0 mi North 9.2 mph - 0.01 in Rain Light Rain
8:37 AM 37.4 °F 28.9 °F 35.6 °F 93% 30.03 in 9.0 mi North 13.8 mph - 0.01 in   Overcast
8:48 AM 37.4 °F 30.3 °F 35.6 °F 93% 30.04 in 10.0 mi North 10.4 mph - 0.01 in   Overcast
8:55 AM 36.0 °F 27.1 °F 34.0 °F 93% 30.06 in 10.0 mi North 13.8 mph 21.9 mph 0.01 in   Overcast
9:55 AM 36.0 °F 25.6 °F 34.0 °F 93% 30.08 in 4.0 mi North 18.4 mph 24.2 mph 0.01 in Rain Light Rain
10:16 AM 35.6 °F 25.5 °F 33.8 °F 93% 30.06 in 5.0 mi North 17.3 mph 25.3 mph 0.02 in Rain Light Rain
10:29 AM 35.6 °F 27.1 °F 33.8 °F 93% 30.05 in 5.0 mi North 12.7 mph 21.9 mph 0.03 in Rain Light Rain
10:38 AM 35.6 °F 25.9 °F 33.8 °F 93% 30.05 in 4.0 mi North 16.1 mph 21.9 mph 0.03 in Rain Light Rain
10:55 AM 36.0 °F 28.0 °F 34.0 °F 93% 30.08 in 4.0 mi North 11.5 mph 23.0 mph 0.05 in Rain Light Rain
11:17 AM 35.6 °F 26.6 °F 33.8 °F 93% 30.04 in 4.0 mi North 13.8 mph 23.0 mph 0.02 in Rain Light Rain
11:33 AM 35.6 °F 26.2 °F 33.8 °F 93% 30.04 in 6.0 mi North 15.0 mph 26.5 mph 0.03 in Rain Light Rain
11:41 AM 35.6 °F 27.1 °F 33.8 °F 93% 30.04 in 6.0 mi North 12.7 mph 23.0 mph 0.03 in Rain Light Rain
11:55 AM 36.0 °F 26.3 °F 34.0 °F 93% 30.06 in 7.0 mi North 16.1 mph 24.2 mph 0.04 in Rain Light Rain
12:09 PM 35.6 °F 26.6 °F 33.8 °F 93% 30.04 in 7.0 mi North 13.8 mph 20.7 mph 0.00 in Rain Light Rain
12:37 PM 35.6 °F 26.2 °F 33.8 °F 93% 30.05 in 2.5 mi North 15.0 mph 23.0 mph 0.00 in Snow Light Snow
12:55 PM 36.0 °F 26.3 °F 34.0 °F 93% 30.07 in 1.8 mi North 16.1 mph 26.5 mph 0.01 in Snow Light Snow
1:04 PM 35.6 °F 28.0 °F 33.8 °F 93% 30.05 in 1.5 mi North 10.4 mph 19.6 mph 0.01 in Snow Light Snow
1:20 PM 35.6 °F 26.6 °F 33.8 °F 93% 30.04 in 2.0 mi North 13.8 mph 23.0 mph 0.01 in Snow Light Snow
1:36 PM 35.6 °F 25.5 °F 33.8 °F 93% 30.03 in 2.5 mi North 17.3 mph - 0.02 in Snow Light Snow
1:50 PM 35.6 °F 27.5 °F 33.8 °F 93% 30.03 in 1.8 mi NNW 11.5 mph - 0.03 in Snow Light Snow
1:53 PM 35.6 °F 26.2 °F 33.8 °F 93% 30.03 in 2.0 mi North 15.0 mph - 0.03 in Snow Light Snow
1:55 PM 36.0 °F 27.1 °F 34.0 °F 93% 30.06 in 2.0 mi North 13.8 mph - 0.03 in Snow Light Snow
2:03 PM 35.6 °F 26.6 °F 33.8 °F 93% 30.03 in 2.0 mi North 13.8 mph 21.9 mph 0.01 in Snow Light Snow
2:10 PM 35.6 °F 25.5 °F 35.6 °F 100% 30.04 in 1.8 mi North 17.3 mph 23.0 mph 0.02 in Snow Light Snow
2:13 PM 35.6 °F 26.6 °F 33.8 °F 93% 30.04 in 2.0 mi North 13.8 mph 23.0 mph 0.02 in Snow Light Snow
2:26 PM 35.6 °F 27.1 °F 33.8 °F 93% 30.04 in 3.0 mi North 12.7 mph 19.6 mph 0.02 in Rain Light Rain
2:55 PM 36.0 °F 27.5 °F 34.0 °F 93% 30.07 in 3.0 mi NNW 12.7 mph - 0.03 in   Overcast
3:02 PM 35.6 °F 26.2 °F 33.8 °F 93% 30.04 in 2.5 mi North 15.0 mph - 0.00 in   Overcast
3:05 PM 35.6 °F 27.5 °F 33.8 °F 93% 30.04 in 3.0 mi North 11.5 mph 19.6 mph 0.00 in   Overcast
3:15 PM 35.6 °F 28.0 °F 35.6 °F 100% 30.04 in 2.5 mi NNW 10.4 mph - 0.01 in   Overcast
3:42 PM 35.6 °F 27.5 °F 33.8 °F 93% 30.03 in 2.5 mi NNW 11.5 mph - 0.02 in Rain Light Rain
3:52 PM 35.6 °F 27.5 °F 33.8 °F 93% 30.03 in 3.0 mi North 11.5 mph - 0.02 in Rain Light Rain
3:55 PM 36.0 °F 27.5 °F 34.0 °F 93% 30.06 in 4.0 mi North 12.7 mph - 0.02 in   Overcast
4:11 PM 35.6 °F 26.2 °F 35.6 °F 100% 30.03 in 4.0 mi North 15.0 mph 20.7 mph 0.00 in   Overcast
4:41 PM 35.6 °F 27.1 °F 33.8 °F 93% 30.03 in 8.0 mi NNW 12.7 mph - 0.01 in   Overcast
4:55 PM 36.0 °F 28.0 °F 34.0 °F 93% 30.06 in 8.0 mi NNW 11.5 mph - 0.01 in   Overcast
5:24 PM 37.4 °F 30.3 °F 33.8 °F 87% 30.03 in 9.0 mi North 10.4 mph - 0.00 in   Overcast
5:55 PM 37.0 °F 29.3 °F 34.0 °F 89% 30.07 in 10.0 mi North 11.5 mph - 0.00 in   Overcast
6:44 PM 37.4 °F 30.8 °F 33.8 °F 87% 30.04 in 10.0 mi North 9.2 mph 18.4 mph 0.00 in   Overcast
6:55 PM 37.0 °F 29.3 °F 34.0 °F 89% 30.07 in 10.0 mi NNW 11.5 mph - 0.00 in   Overcast
7:42 PM 37.4 °F 31.4 °F 33.8 °F 87% 30.04 in 10.0 mi NNW 8.1 mph - N/A   Overcast
7:55 PM 37.0 °F 30.4 °F 34.0 °F 89% 30.08 in 10.0 mi NNW 9.2 mph - N/A   Overcast
8:55 PM 37.0 °F 32.4 °F 33.1 °F 86% 30.09 in 10.0 mi NW 5.8 mph - N/A   Overcast
9:55 PM 37.0 °F 31.0 °F 34.0 °F 89% 30.12 in 10.0 mi WNW 8.1 mph - N/A   Overcast
10:55 PM 37.9 °F 31.5 °F 32.0 °F 79% 30.12 in 10.0 mi NNW 9.2 mph - N/A   Overcast
11:55 PM 36.0 °F 27.5 °F 32.0 °F 86% 30.14 in 9.0 mi NNW 12.7 mph - 0.00 in Snow Light Snow